This demonstration page uses our WeatherBlox Daily Observations layout. Learn more.

Left ArrowRight Arrow

Hourly Observations for May 21, 2017

Temp ( °F °C ) Dew Point ( °F °C ) Humidity (%) Winds ( mph kmh ) Pressure ( in mb ) Visibility ( mi km ) Precip ( " mm )
12:15 am 00:15 Cloudy 63 17 52 11 68 68 ESE 7 11 30.30 1026 10 16 N/A
12:35 am 00:35 Cloudy 63 17 52 11 68 68 SE 5 7 30.30 1026 10 16 N/A
12:55 am 00:55 Cloudy 63 17 52 11 68 68 ESE 7 11 30.30 1026 10 16 N/A
1:15 am 01:15 Cloudy 63 17 54 12 73 73 ESE 6 9 30.30 1026 10 16 N/A
1:35 am 01:35 Cloudy 63 17 52 11 68 68 SSE 7 11 30.30 1026 10 16 N/A
1:55 am 01:55 Cloudy 63 17 46 8 56 56 S 9 15 30.33 1027 10 16 N/A
2:15 am 02:15 Cloudy 61 16 45 7 55 55 SSE 6 9 30.33 1027 10 16 N/A
2:35 am 02:35 Cloudy 61 16 45 7 55 55 SE 3 6 30.33 1027 10 16 N/A
2:55 am 02:55 Cloudy 61 16 45 7 55 55 SSE 5 7 30.30 1026 10 16 N/A
3:15 am 03:15 Cloudy 61 16 45 7 55 55 SE 5 7 30.30 1026 10 16 N/A
3:35 am 03:35 Cloudy 61 16 46 8 59 59 SE 5 7 30.30 1026 10 16 N/A
3:55 am 03:55 Cloudy 61 16 46 8 59 59 SSE 6 9 30.30 1026 10 16 N/A
4:15 am 04:15 Cloudy 61 16 46 8 59 59 SE 5 7 30.30 1026 10 16 N/A
4:35 am 04:35 Cloudy 61 16 46 8 59 59 SSE 6 9 30.30 1026 10 16 N/A
4:55 am 04:55 Cloudy 61 16 48 9 63 63 SE 5 7 30.27 1025 10 16 N/A
5:15 am 05:15 Cloudy 59 15 48 9 68 68 ESE 3 6 30.27 1025 10 16 N/A
5:35 am 05:35 Cloudy 59 15 46 8 63 63 E 5 7 30.27 1025 10 16 N/A
5:55 am 05:55 Cloudy 59 15 46 8 63 63 ESE 3 6 30.27 1025 10 16 N/A
6:15 am 06:15 Cloudy 59 15 46 8 63 63 N N/A 30.27 1025 10 16 N/A
6:35 am 06:35 Cloudy 59 15 46 8 63 63 E 3 6 30.30 1026 10 16 N/A
6:55 am 06:55 Cloudy 59 15 46 8 63 63 N N/A 30.30 1026 10 16 N/A
7:15 am 07:15 Cloudy 59 15 46 8 63 63 ESE 3 6 30.33 1027 10 16 N/A
7:35 am 07:35 Cloudy 59 15 46 8 63 63 SSE 5 7 30.33 1027 10 16 N/A
7:55 am 07:55 Cloudy 59 15 45 7 59 59 N N/A 30.33 1027 10 16 N/A
8:15 am 08:15 Cloudy 59 15 45 7 59 59 ESE 6 9 30.33 1027 10 16 N/A
8:35 am 08:35 Cloudy 59 15 45 7 59 59 E 7 11 30.33 1027 10 16 N/A
8:55 am 08:55 Cloudy 61 16 45 7 55 55 ESE 7 11 30.30 1026 10 16 N/A
9:15 am 09:15 Cloudy 61 16 45 7 55 55 SSE 5 7 30.33 1027 10 16 N/A
9:35 am 09:35 Cloudy 61 16 45 7 55 55 ESE 6 9 30.33 1027 10 16 N/A
9:55 am 09:55 Cloudy 61 16 45 7 55 55 SSE 6 9 30.33 1027 10 16 N/A
10:15 am 10:15 Cloudy 61 16 45 7 55 55 SE 5 7 30.33 1027 10 16 N/A
10:35 am 10:35 Cloudy 63 17 45 7 52 52 SSE 5 7 30.33 1027 10 16 N/A
10:55 am 10:55 Cloudy 63 17 43 6 49 49 SSE 6 9 30.33 1027 10 16 N/A
11:15 am 11:15 Cloudy 63 17 45 7 52 52 SSE 5 7 30.33 1027 10 16 N/A
11:35 am 11:35 Cloudy 63 17 45 7 52 52 SSE 8 13 30.30 1026 10 16 N/A
11:55 am 11:55 Cloudy 64 18 45 7 49 49 SSE 6 9 30.30 1026 10 16 N/A
12:15 pm 12:15 Cloudy 64 18 45 7 49 49 SSE 5 7 30.30 1026 10 16 N/A
12:35 pm 12:35 Cloudy 64 18 45 7 49 49 SSE 6 9 30.30 1026 10 16 N/A
12:55 pm 12:55 Cloudy 64 18 45 7 49 49 SE 9 15 30.30 1026 10 16 N/A
1:15 pm 13:15 Cloudy 66 19 43 6 43 43 SSE 9 15 30.30 1026 10 16 N/A
1:35 pm 13:35 Cloudy 66 19 43 6 43 43 SE 9 15 30.30 1026 10 16 N/A
1:55 pm 13:55 Cloudy 66 19 45 7 46 46 SSE 9 15 30.27 1025 10 16 N/A
2:15 pm 14:15 Cloudy 66 19 45 7 46 46 SE 8 13 30.27 1025 10 16 N/A
2:35 pm 14:35 Cloudy 68 20 45 7 43 43 S 9 15 30.27 1025 10 16 N/A
2:55 pm 14:55 Cloudy 68 20 46 8 46 46 SE 9 15 30.27 1025 10 16 N/A
3:15 pm 15:15 Cloudy 68 20 48 9 49 49 SSE 9 15 30.27 1025 10 16 N/A
3:35 pm 15:35 Cloudy 68 20 48 9 49 49 SE 12 19 30.24 1024 10 16 N/A
3:55 pm 15:55 Cloudy 68 20 50 10 53 53 SSE 12 19 30.24 1024 10 16 N/A
4:15 pm 16:15 Cloudy 68 20 50 10 53 53 SE 8 13 30.24 1024 10 16 N/A
4:35 pm 16:35 Mostly Cloudy 68 20 48 9 49 49 SSE 13 20 30.24 1024 10 16 N/A
4:55 pm 16:55 Mostly Cloudy 68 20 50 10 53 53 SSE 9 15 30.24 1024 10 16 N/A
5:15 pm 17:15 Cloudy 68 20 50 10 53 53 S 10 17 30.21 1023 10 16 N/A
5:35 pm 17:35 Cloudy 68 20 52 11 56 56 SSE 8 13 30.21 1023 10 16 N/A
5:55 pm 17:55 Cloudy 68 20 52 11 56 56 SSE 8 13 30.21 1023 10 16 N/A
6:15 pm 18:15 Cloudy 68 20 52 11 56 56 S 7 11 30.21 1023 10 16 N/A
6:35 pm 18:35 Cloudy 68 20 52 11 56 56 S 10 17 30.21 1023 10 16 N/A
6:55 pm 18:55 Cloudy 68 20 54 12 60 60 S 6 9 30.21 1023 10 16 N/A
7:15 pm 19:15 Cloudy 68 20 52 11 56 56 S 8 13 30.21 1023 10 16 N/A
7:35 pm 19:35 Cloudy 66 19 52 11 60 60 S 8 13 30.21 1023 10 16 N/A
7:55 pm 19:55 Cloudy 66 19 52 11 60 60 S 6 9 30.21 1023 10 16 N/A
8:15 pm 20:15 Cloudy 66 19 52 11 60 60 S 6 9 30.21 1023 10 16 N/A
8:35 pm 20:35 Cloudy 66 19 54 12 64 64 SSE 6 9 30.21 1023 10 16 N/A
8:55 pm 20:55 Cloudy 66 19 52 11 60 60 SSE 8 13 30.21 1023 10 16 N/A
9:15 pm 21:15 Cloudy 66 19 54 12 64 64 S 8 13 30.21 1023 10 16 N/A
9:35 pm 21:35 Cloudy 64 18 54 12 68 68 S 8 13 30.21 1023 10 16 N/A
9:55 pm 21:55 Cloudy 64 18 52 11 64 64 S 9 15 30.21 1023 10 16 N/A
10:15 pm 22:15 Cloudy 64 18 52 11 64 64 S 9 15 30.21 1023 10 16 N/A
10:35 pm 22:35 Mostly Cloudy 64 18 54 12 68 68 S 9 15 30.21 1023 10 16 N/A
10:55 pm 22:55 Cloudy 64 18 54 12 68 68 S 9 15 30.21 1023 10 16 N/A
11:15 pm 23:15 Cloudy 64 18 54 12 68 68 S 7 11 30.21 1023 10 16 N/A
11:35 pm 23:35 Cloudy 64 18 54 12 68 68 S 7 11 30.21 1023 10 16 N/A
11:55 pm 23:55 Cloudy 64 18 54 12 68 68 S 5 7 30.18 1022 10 16 N/A

Powered by AerisWeather